| time (UTC) | temp C | wind direction | speed KPH | gust KPH | rain 1hr cm | rain 24hr cm | rain mn cm | humidity % | barometer mb |
| 20260906083100 | 21 | 196 | 0.0 | 0.0 | 0.00 | 0.00 | 0.00 | 97 | 1010.0 |
| 20260906081558 | 21 | 196 | 0.0 | 0.0 | 0.00 | 0.00 | 0.00 | 97 | 1009.9 |
| 20260906080057 | 21 | 196 | 0.0 | 0.0 | 0.00 | 0.00 | 0.00 | 97 | 1009.9 |
| 20260906074556 | 21 | 196 | 0.0 | 0.0 | 0.00 | 0.00 | 0.00 | 97 | 1009.8 |
| 20260906073058 | 21 | 196 | 0.0 | 0.0 | 0.00 | 0.00 | 0.00 | 97 | 1009.6 |
| 20260906071555 | 21 | 196 | 0.0 | 0.0 | 0.00 | 0.00 | 0.00 | 97 | 1009.6 |
| 20260906070053 | 21 | 196 | 0.0 | 0.0 | 0.00 | 0.00 | 0.00 | 97 | 1009.9 |
| 20260906064555 | 21 | 196 | 0.0 | 0.0 | 0.00 | 0.00 | 0.00 | 97 | 1009.8 |
| 20260906063053 | 21 | 196 | 0.0 | 0.0 | 0.00 | 0.00 | 0.00 | 97 | 1010.1 |
| 20260906061550 | 21 | 196 | 0.0 | 0.0 | 0.00 | 0.00 | 0.00 | 96 | 1010.2 |
| 20260906060047 | 21 | 196 | 0.0 | 0.0 | 0.00 | 0.00 | 0.00 | 96 | 1010.3 |
| 20260906054547 | 21 | 196 | 0.0 | 0.0 | 0.00 | 0.00 | 0.00 | 96 | 1010.4 |
| 20260906053047 | 21 | 196 | 0.0 | 0.0 | 0.00 | 0.00 | 0.00 | 95 | 1010.7 |
| 20260906051544 | 21 | 196 | 0.0 | 0.0 | 0.00 | 0.00 | 0.00 | 95 | 1010.7 |
| 20260906050046 | 21 | 196 | 0.0 | 0.0 | 0.00 | 0.00 | 0.00 | 94 | 1010.8 |
| 20260906044543 | 22 | 196 | 0.0 | 0.0 | 0.00 | 0.00 | 0.00 | 94 | 1010.8 |
| 20260906043040 | 22 | 196 | 0.0 | 0.0 | 0.00 | 0.00 | 0.00 | 93 | 1010.8 |
| 20260906041538 | 22 | 196 | 0.0 | 0.0 | 0.00 | 0.00 | 0.00 | 93 | 1010.9 |
| 20260906040035 | 22 | 196 | 0.0 | 0.0 | 0.00 | 0.00 | 0.00 | 92 | 1011.2 |
| 20260906034534 | 22 | 196 | 0.0 | 0.0 | 0.00 | 0.00 | 0.00 | 91 | 1011.3 |
| 20260906033033 | 22 | 196 | 0.0 | 0.0 | 0.00 | 0.00 | 0.00 | 90 | 1011.2 |
| 20260906031531 | 22 | 196 | 0.0 | 0.0 | 0.00 | 0.00 | 0.00 | 90 | 1011.5 |
| 20260906030029 | 23 | 196 | 0.0 | 0.0 | 0.00 | 0.00 | 0.00 | 88 | 1011.4 |
| 20260906024527 | 23 | 196 | 0.0 | 0.0 | 0.00 | 0.00 | 0.00 | 87 | 1011.1 |
| 20260906023028 | 23 | 196 | 0.0 | 0.0 | 0.00 | 0.00 | 0.00 | 85 | 1010.8 |
| 20260906021537 | 23 | 209 | 0.0 | 0.0 | 0.00 | 0.00 | 0.00 | 84 | 1010.7 |
| 20260906020026 | 24 | 153 | 0.0 | 0.0 | 0.00 | 0.00 | 0.00 | 82 | 1011.0 |
| 20260906014527 | 24 | 279 | 0.0 | 0.0 | 0.00 | 0.00 | 0.00 | 80 | 1010.8 |
| 20260906013035 | 25 | 223 | 0.0 | 0.0 | 0.00 | 0.00 | 0.00 | 79 | 1010.7 |
| 20260906011528 | 25 | 229 | 1.6 | 0.0 | 0.00 | 0.00 | 0.00 | 78 | 1010.7 |
| 20260906010024 | 25 | 151 | 0.0 | 0.0 | 0.00 | 0.00 | 0.00 | 77 | 1010.8 |
| 20260906004523 | 25 | 196 | 0.0 | 0.0 | 0.00 | 0.00 | 0.00 | 77 | 1010.6 |
| 20260906003024 | 26 | 207 | 0.0 | 0.0 | 0.00 | 0.00 | 0.00 | 77 | 1010.3 |
| 20260906001522 | 26 | 200 | 1.6 | 0.0 | 0.00 | 0.00 | 0.00 | 75 | 1010.0 |
| 20260906000024 | 27 | 317 | 0.0 | 0.0 | 0.00 | 0.00 | 0.00 | 76 | 1010.0 |
| 20260905234521 | 28 | 317 | 0.0 | 0.0 | 0.00 | 0.00 | 0.00 | 73 | 1009.9 |
| 20260905233022 | 28 | 317 | 0.0 | 0.0 | 0.00 | 0.00 | 0.00 | 71 | 1009.5 |
| 20260905231521 | 29 | 317 | 0.0 | 0.0 | 0.00 | 0.00 | 0.00 | 70 | 1009.2 |
| 20260905230020 | 29 | 317 | 0.0 | 0.0 | 0.00 | 0.00 | 0.00 | 71 | 1009.2 |
| 20260905224527 | 30 | 317 | 0.0 | 0.0 | 0.00 | 0.00 | 0.00 | 66 | 1009.3 |
| 20260905223020 | 30 | 16 | 1.6 | 0.0 | 0.00 | 0.00 | 0.00 | 66 | 1009.2 |
| 20260905221519 | 30 | 288 | 3.2 | 0.0 | 0.00 | 0.00 | 0.00 | 67 | 1009.1 |
| 20260905220018 | 30 | 304 | 3.2 | 0.0 | 0.00 | 0.00 | 0.00 | 66 | 1009.2 |
| 20260905214518 | 29 | 279 | 1.6 | 0.0 | 0.00 | 0.00 | 0.00 | 66 | 1009.1 |
| 20260905213017 | 27 | 263 | 0.0 | 0.0 | 0.00 | 0.00 | 0.00 | 76 | 1009.5 |
| 20260905211518 | 27 | 312 | 3.2 | 0.0 | 0.00 | 0.00 | 0.00 | 75 | 1010.2 |
| 20260905210016 | 27 | 331 | 1.6 | 0.0 | 0.00 | 0.00 | 0.00 | 78 | 1010.2 |
| 20260905204517 | 27 | 39 | 0.0 | 0.0 | 0.00 | 0.00 | 0.00 | 75 | 1010.3 |
| 20260905203016 | 28 | 269 | 1.6 | 0.0 | 0.00 | 0.00 | 0.00 | 67 | 1010.1 |
| 20260905201519 | 29 | 321 | 4.8 | 0.0 | 0.00 | 0.00 | 0.00 | 63 | 1009.9 |
| 20260905200023 | 31 | 331 | 6.4 | 0.0 | 0.00 | 0.00 | 0.00 | 59 | 1009.6 |
| 20260905194514 | 35 | 67 | 4.8 | 0.0 | 0.00 | 0.00 | 0.00 | 50 | 1009.3 |
| 20260905193013 | 36 | 202 | 1.6 | 0.0 | 0.00 | 0.00 | 0.00 | 53 | 1008.7 |
| 20260905191511 | 36 | 265 | 3.2 | 0.0 | 0.00 | 0.00 | 0.00 | 47 | 1009.2 |
| 20260905190010 | 36 | 248 | 3.2 | 0.0 | 0.00 | 0.00 | 0.00 | 47 | 1009.1 |
| 20260905184519 | 36 | 323 | 3.2 | 0.0 | 0.00 | 0.00 | 0.00 | 48 | 1009.4 |
| 20260905183007 | 36 | 236 | 4.8 | 0.0 | 0.00 | 0.00 | 0.00 | 49 | 1009.6 |
| 20260905181506 | 36 | 326 | 3.2 | 0.0 | 0.00 | 0.00 | 0.00 | 47 | 1009.8 |
| 20260905180005 | 37 | 355 | 3.2 | 0.0 | 0.00 | 0.00 | 0.00 | 45 | 1010.1 |
| 20260905174600 | 36 | 19 | 4.8 | 0.0 | 0.00 | 0.00 | 0.00 | 47 | 1010.4 |
| 20260905173057 | 36 | 57 | 3.2 | 0.0 | 0.00 | 0.00 | 0.00 | 49 | 1010.8 |
| 20260905171556 | 36 | 9 | 1.6 | 0.0 | 0.00 | 0.00 | 0.00 | 49 | 1010.9 |
| 20260905170055 | 35 | 296 | 3.2 | 0.0 | 0.00 | 0.00 | 0.00 | 53 | 1011.3 |
| 20260905164553 | 36 | 334 | 1.6 | 0.0 | 0.00 | 0.00 | 0.00 | 50 | 1011.4 |
| 20260905163049 | 35 | 320 | 1.6 | 0.0 | 0.00 | 0.00 | 0.00 | 53 | 1011.6 |
| 20260905161546 | 35 | 252 | 1.6 | 0.0 | 0.00 | 0.00 | 0.00 | 54 | 1011.8 |
| 20260905160043 | 34 | 244 | 1.6 | 0.0 | 0.00 | 0.00 | 0.00 | 60 | 1011.9 |
| 20260905154538 | 33 | 325 | 3.2 | 0.0 | 0.00 | 0.00 | 0.00 | 64 | 1012.1 |
| 20260905153048 | 32 | 240 | 3.2 | 0.0 | 0.00 | 0.00 | 0.00 | 66 | 1012.2 |
| 20260905151531 | 32 | 270 | 1.6 | 0.0 | 0.00 | 0.00 | 0.00 | 68 | 1012.1 |
| 20260905150027 | 32 | 208 | 1.6 | 0.0 | 0.00 | 0.00 | 0.00 | 70 | 1012.2 |
| 20260905144526 | 31 | 254 | 1.6 | 0.0 | 0.00 | 0.00 | 0.00 | 71 | 1012.3 |
| 20260905143020 | 30 | 259 | 3.2 | 0.0 | 0.00 | 0.00 | 0.00 | 75 | 1012.3 |
| 20260905141514 | 30 | 198 | 1.6 | 0.0 | 0.00 | 0.00 | 0.00 | 76 | 1012.4 |
| 20260905140011 | 28 | 292 | 3.2 | 0.0 | 0.00 | 0.00 | 0.00 | 79 | 1012.4 |
| 20260905134505 | 28 | 240 | 1.6 | 0.0 | 0.00 | 0.00 | 0.00 | 80 | 1012.5 |
| 20260905133001 | 27 | 254 | 1.6 | 0.0 | 0.00 | 0.00 | 0.00 | 82 | 1012.6 |
| 20260905131614 | 27 | 213 | 1.6 | 0.0 | 0.00 | 0.00 | 0.00 | 84 | 1012.7 |
| 20260905130054 | 26 | 144 | 1.6 | 0.0 | 0.00 | 0.00 | 0.00 | 87 | 1012.9 |
| 20260905124548 | 26 | 197 | 1.6 | 0.0 | 0.00 | 0.00 | 0.00 | 89 | 1012.9 |
| 20260905123045 | 25 | 205 | 1.6 | 0.0 | 0.00 | 0.00 | 0.00 | 91 | 1012.9 |
| 20260905121541 | 24 | 196 | 1.6 | 0.0 | 0.00 | 0.00 | 0.00 | 93 | 1012.9 |
| 20260905120038 | 23 | 200 | 1.6 | 0.0 | 0.00 | 0.00 | 0.00 | 94 | 1012.7 |
| 20260905114540 | 23 | 274 | 1.6 | 0.0 | 0.00 | 0.00 | 0.00 | 94 | 1012.6 |
| 20260905113034 | 23 | 274 | 0.0 | 0.0 | 0.00 | 0.00 | 0.00 | 94 | 1012.5 |
| 20260905111539 | 23 | 274 | 1.6 | 0.0 | 0.00 | 0.00 | 0.00 | 95 | 1012.1 |
| 20260905110030 | 23 | 274 | 0.0 | 0.0 | 0.00 | 0.00 | 0.00 | 95 | 1011.9 |
| 20260905104536 | 23 | 274 | 0.0 | 0.0 | 0.00 | 0.00 | 0.00 | 94 | 1011.7 |
| 20260905103028 | 23 | 274 | 0.0 | 0.0 | 0.00 | 0.00 | 0.00 | 94 | 1011.5 |
| 20260905101527 | 23 | 274 | 0.0 | 0.0 | 0.00 | 0.00 | 0.00 | 93 | 1011.4 |
| 20260905100026 | 23 | 274 | 0.0 | 0.0 | 0.00 | 0.00 | 0.00 | 92 | 1011.2 |
| 20260905094526 | 24 | 274 | 0.0 | 0.0 | 0.00 | 0.00 | 0.00 | 91 | 1011.2 |
| 20260905093025 | 24 | 274 | 0.0 | 0.0 | 0.00 | 0.00 | 0.00 | 91 | 1011.2 |
| 20260905091524 | 24 | 274 | 1.6 | 0.0 | 0.00 | 0.00 | 0.00 | 91 | 1011.2 |
| 20260905090022 | 24 | 274 | 0.0 | 0.0 | 0.00 | 0.00 | 0.00 | 91 | 1011.4 |
| 20260905084521 | 24 | 274 | 0.0 | 0.0 | 0.00 | 0.00 | 0.00 | 91 | 1011.5 |